Arctic Village, AK

10:56 AM AKDT on April 29, 2017 (GMT -0800)
Arctic Village

Weather History for PARC - October, 2012

Change the Weather History Date:

Monday, October 8, 2012

  Actual Average Record
Temperature  
Mean Temperature 25 °F -  
Max Temperature 35 °F 30 °F 42 °F (1989)
Min Temperature 15 °F 15 °F -16 °F (2008)
Degree Days  
Heating Degree Days 40    
Moisture  
Dew Point 16 °F    
Average Humidity 74    
Maximum Humidity 100    
Minimum Humidity 47    
Precipitation  
Precipitation 0.00 in - - ()
Sea Level Pressure  
Sea Level Pressure 30.14 in    
Wind  
Wind Speed 3 mph (NE)    
Max Wind Speed 12 mph    
Max Gust Speed -    
Visibility 10 miles    
Events      
Averages and records for this station are not official NWS values.
T = Trace of Precipitation, MM = Missing Value Source: NWS Daily Summary

Daily Weather History Graph

Daily Weather History Graph

Search for Another Location

Airport or City:

Trip Planner

Search our weather history database for the weather conditions in past years. The results will help you decide how hot, cold, wet, or windy it might be!

Date:

Astronomy

Oct. 08, 2012 Rise Set
Actual Time 8:23 AM AKDT 6:34 PM AKDT
Civil Twilight 7:27 AM AKDT 7:30 PM AKDT
Nautical Twilight 6:21 AM AKDT 8:35 PM AKDT
Astronomical Twilight 5:12 AM AKDT 9:44 PM AKDT
Moon 11:18 PM AKDT (10/8) 5:28 PM AKDT (10/8)
Length of Visible Light 12h 03m
Length of Day
10h 10m
Last Quarter, 45% of the Moon is Illuminated
Oct 8
Last Quarter
Oct 15
New
Oct 21
First Quarter
Oct 29
Full
Nov 6
Last Quarter

Hourly Weather History & Observations

Time (AKDT) Temp. Windchill Dew Point Humidity Pressure Visibility Wind Dir Wind Speed Gust Speed Precip Events Conditions
12:16 AM 19.4 °F 14.3 °F 14.0 °F 80% 30.11 in 10.0 mi East 3.5 mph - N/A   Clear
12:36 AM 19.4 °F 14.3 °F 14.0 °F 80% 30.10 in 10.0 mi NE 3.5 mph - N/A   Clear
12:56 AM 17.6 °F 10.7 °F 15.8 °F 93% 30.10 in 10.0 mi NNE 4.6 mph - N/A   Clear
1:16 AM 17.6 °F 12.3 °F 15.8 °F 93% 30.11 in 10.0 mi NE 3.5 mph - N/A   Clear
1:36 AM 17.6 °F 12.3 °F 15.8 °F 93% 30.11 in 10.0 mi East 3.5 mph - N/A   Clear
1:56 AM 17.6 °F - 15.8 °F 93% 30.10 in 10.0 mi Calm Calm - N/A   Clear
2:16 AM 17.6 °F - 15.8 °F 93% 30.10 in 10.0 mi Calm Calm - N/A   Clear
2:36 AM 15.8 °F 10.2 °F 15.8 °F 100% 30.10 in 10.0 mi ENE 3.5 mph - N/A   Clear
2:56 AM 17.6 °F 12.3 °F 15.8 °F 93% 30.10 in 10.0 mi NE 3.5 mph - N/A   Clear
3:16 AM 17.6 °F 12.3 °F 15.8 °F 93% 30.10 in 10.0 mi ESE 3.5 mph - N/A   Clear
3:36 AM 17.6 °F - 15.8 °F 93% 30.10 in 10.0 mi Calm Calm - N/A   Clear
3:56 AM 17.6 °F 12.3 °F 15.8 °F 93% 30.10 in 10.0 mi East 3.5 mph - N/A   Clear
4:16 AM 17.6 °F 12.3 °F 14.0 °F 86% 30.10 in 10.0 mi ENE 3.5 mph - N/A   Clear
4:36 AM 17.6 °F - 15.8 °F 93% 30.10 in 10.0 mi Calm Calm - N/A   Clear
4:56 AM 17.6 °F - 14.0 °F 86% 30.10 in 10.0 mi Calm Calm - N/A   Clear
5:16 AM 17.6 °F 12.3 °F 15.8 °F 93% 30.10 in 10.0 mi ENE 3.5 mph - N/A   Clear
5:36 AM 17.6 °F 12.3 °F 15.8 °F 93% 30.10 in 10.0 mi East 3.5 mph - N/A   Clear
5:56 AM 17.6 °F 10.7 °F 15.8 °F 93% 30.10 in 10.0 mi East 4.6 mph - N/A   Clear
6:16 AM 17.6 °F - 14.0 °F 86% 30.10 in 10.0 mi Calm Calm - N/A   Clear
6:36 AM 17.6 °F - 15.8 °F 93% 30.09 in 10.0 mi Calm Calm - N/A   Clear
6:56 AM 15.8 °F 10.2 °F 14.0 °F 93% 30.09 in 10.0 mi NNE 3.5 mph - N/A   Clear
7:16 AM 17.6 °F - 15.8 °F 93% 30.10 in 10.0 mi Calm Calm - N/A   Clear
7:36 AM 15.8 °F 8.6 °F 15.8 °F 100% 30.09 in 10.0 mi NNE 4.6 mph - N/A   Clear
7:56 AM 15.8 °F 7.2 °F 15.8 °F 100% 30.09 in 10.0 mi NNE 5.8 mph - N/A   Mostly Cloudy
8:16 AM 15.8 °F 8.6 °F 14.0 °F 93% 30.09 in 10.0 mi North 4.6 mph - N/A   Mostly Cloudy
8:36 AM 15.8 °F 7.2 °F 14.0 °F 93% 30.09 in 10.0 mi North 5.8 mph - N/A   Mostly Cloudy
8:56 AM 15.8 °F - 14.0 °F 93% 30.09 in 10.0 mi Calm Calm - N/A   Mostly Cloudy
9:16 AM 17.6 °F 10.7 °F 15.8 °F 93% 30.10 in 10.0 mi NNE 4.6 mph - N/A   Overcast
9:36 AM 17.6 °F - 14.0 °F 86% 30.10 in 10.0 mi Calm Calm - N/A   Overcast
9:56 AM 17.6 °F 9.3 °F 14.0 °F 86% 30.09 in 10.0 mi NNE 5.8 mph - N/A   Mostly Cloudy
10:16 AM 19.4 °F - 17.6 °F 93% 30.10 in 10.0 mi Calm Calm - N/A   Scattered Clouds
10:36 AM 19.4 °F - 15.8 °F 86% 30.09 in 10.0 mi Calm Calm - N/A   Mostly Cloudy
10:56 AM 21.2 °F - 15.8 °F 80% 30.10 in 10.0 mi Calm Calm - N/A   Partly Cloudy
11:16 AM 23.0 °F - 17.6 °F 80% 30.10 in 10.0 mi Calm Calm - N/A   Mostly Cloudy
11:36 AM 24.8 °F - 19.4 °F 80% 30.10 in 10.0 mi Calm Calm - N/A   Partly Cloudy
11:56 AM 26.6 °F 22.6 °F 19.4 °F 74% 30.10 in 10.0 mi East 3.5 mph - N/A   Clear
12:16 PM 26.6 °F 21.2 °F 19.4 °F 74% 30.10 in 10.0 mi ENE 4.6 mph - N/A   Clear
12:36 PM 26.6 °F - 19.4 °F 74% 30.10 in 10.0 mi Calm Calm - N/A   Clear
12:56 PM 28.4 °F 24.6 °F 19.4 °F 69% 30.11 in 10.0 mi ENE 3.5 mph - N/A   Clear
1:16 PM 28.4 °F 23.3 °F 19.4 °F 69% 30.12 in 10.0 mi East 4.6 mph - N/A   Clear
1:36 PM 28.4 °F - 19.4 °F 69% 30.12 in 10.0 mi Calm Calm - N/A   Clear
1:56 PM 30.2 °F - 19.4 °F 64% 30.12 in 10.0 mi Calm Calm - N/A   Clear
2:16 PM 30.2 °F - 19.4 °F 64% 30.13 in 10.0 mi Calm Calm - N/A   Clear
2:36 PM 30.2 °F - 19.4 °F 64% 30.13 in 10.0 mi Calm Calm - N/A   Clear
2:56 PM 30.2 °F - 19.4 °F 64% 30.13 in 10.0 mi Calm Calm - N/A   Clear
3:16 PM 32.0 °F - 19.4 °F 60% 30.14 in 10.0 mi Calm Calm - N/A   Clear
3:36 PM 32.0 °F - 19.4 °F 60% 30.14 in 10.0 mi Calm Calm - N/A   Clear
3:56 PM 33.8 °F - 19.4 °F 56% 30.14 in 10.0 mi Calm Calm - N/A   Partly Cloudy
4:16 PM 33.8 °F - 17.6 °F 52% 30.15 in 10.0 mi Calm Calm - N/A   Partly Cloudy
4:36 PM 33.8 °F - 19.4 °F 56% 30.15 in 10.0 mi Calm Calm - N/A   Mostly Cloudy
4:56 PM 35.6 °F - 17.6 °F 48% 30.15 in 10.0 mi Calm Calm - N/A   Mostly Cloudy
5:16 PM 35.6 °F - 17.6 °F 48% 30.16 in 10.0 mi Calm Calm - N/A   Partly Cloudy
5:56 PM 33.8 °F 30.8 °F 15.8 °F 48% 30.17 in 10.0 mi WNW 3.5 mph - N/A   Clear
6:16 PM 32.0 °F 27.5 °F 14.0 °F 48% 30.18 in 10.0 mi NW 4.6 mph - N/A   Scattered Clouds
6:36 PM 30.2 °F 24.3 °F 15.8 °F 55% 30.18 in 10.0 mi NNW 5.8 mph - N/A   Overcast
6:56 PM 30.2 °F 26.7 °F 14.0 °F 51% 30.19 in 10.0 mi NW 3.5 mph - N/A   Scattered Clouds
7:16 PM 30.2 °F 26.7 °F 15.8 °F 55% 30.20 in 10.0 mi NW 3.5 mph - N/A   Mostly Cloudy
7:36 PM 30.2 °F - 15.8 °F 55% 30.20 in 10.0 mi Calm Calm - N/A   Overcast
7:56 PM 30.2 °F - 17.6 °F 60% 30.21 in 10.0 mi Calm Calm - N/A   Overcast
8:16 PM 30.2 °F - 17.6 °F 60% 30.22 in 10.0 mi Calm Calm - N/A   Overcast
8:36 PM 28.4 °F 24.6 °F 19.4 °F 69% 30.23 in 10.0 mi SSE 3.5 mph - N/A   Overcast
8:56 PM 28.4 °F 24.6 °F 19.4 °F 69% 30.24 in 10.0 mi SSE 3.5 mph - N/A   Overcast
9:16 PM 28.4 °F - 17.6 °F 64% 30.25 in 10.0 mi Calm Calm - N/A   Overcast
9:36 PM 30.2 °F 21.3 °F 14.0 °F 51% 30.26 in 10.0 mi North 10.4 mph - N/A   Overcast
9:56 PM 28.4 °F 19.7 °F 14.0 °F 55% 30.27 in 10.0 mi NNE 9.2 mph - N/A   Scattered Clouds
10:16 PM 28.4 °F 19.7 °F 12.2 °F 51% 30.28 in 10.0 mi North 9.2 mph - N/A   Clear
10:36 PM 28.4 °F 19.7 °F 10.4 °F 47% 30.29 in 10.0 mi North 9.2 mph - N/A   Partly Cloudy
10:56 PM 28.4 °F 18.5 °F 10.4 °F 47% 30.30 in 10.0 mi North 11.5 mph - N/A   Partly Cloudy
11:16 PM 26.6 °F 16.2 °F 10.4 °F 51% 30.30 in 10.0 mi North 11.5 mph - N/A   Clear
11:36 PM 26.6 °F 17.5 °F 10.4 °F 51% 30.31 in 10.0 mi North 9.2 mph - N/A   Clear
11:56 PM 24.8 °F 16.1 °F 10.4 °F 54% 30.32 in 10.0 mi North 8.1 mph - N/A   Clear